SCP
0 0 0 0 0 0 0 0 0 0 0 0 0 0 0 0 0 0 0 0 0 0 0 0 0 0 0 0 0 0 0 0 0 0 0 0 0 0 0 0 0 0 0 0 0 0 0 0 0 0 0 0 0 0
0 0 0 0 0 0 0 0 0 0 0 0 0 0 0 0 0 0 0 0 0 0 0 0 0 0 0 0 0 0 0 0 0 0 0 0 0 0 0 0 0 0 0 0 0 0 0 0 0 0 0 0 0 0
0 0 0 0 0 0 0 0 0 0 0 0 0 0 0 0 0 0 0 0 0 0 0 0 0 0 0 0 0 0 0 0 0 0 0 0 0 0 0 0 0 0 0 0 0 0 0 -0 0 0 0 0 0 0
0 0 0 0 0 0 0 0 0 0 0 0 0 0 0 0 0 0 0 0 0 0 0 0 0 0 0 0 0 0 0 0 0 0 0 0 0 0 0 0 0 0 0 0 -0 -0 -0 0 0 0 0 0 0 0
0 0 0 0 0 0 0 0 0 0 0 0 0 0 0 0 0 0 0 0 0 0 0 0 0 0 0 0 0 0 0 0 0 0 0 0 0 0 0 0 0 0 0 -0 0 -0 0 0 0 0 0 0 0 -0
0 0 0 0 0 0 0 0 0 -0 -0 0 0 0 0 0 0 0 0 0 0 0 0 0 0 0 0 0 0 0 0 0 0 0 0 0 0 0 0 -0 0 0 -0 -0 -0 0 0 0 0 0 0 0 0 0
0 0 0 0 0 0 0 0 0 0 0 0 0 0 0 0 0 0 0 0 0 0 0 0 0 0 0 0 0 -0 0 0 0 0 0 0 0 0 0 -0 0 0 -0 -0 -0 -0 0 0 0 0 0 0 0 0
0 0 0 0 0 0 0 0 0 0 0 0 0 0 0 0 0 0 0 0 0 0 0 0 0 0 0 0 0 -0 -0 0 0 0 0 0 0 0 -0 0 0 -0 -0 -0 -0 -0 0 0 0 0 0 0 0 0
0 0 0 0 0 0 0 0 0 0 0 0 0 0 0 0 0 0 0 0 0 0 0 0 0 0 0 0 0 0 0 0 0 0 0 0 -0 -0 -0 0 -0 -0 -0 -0 0 0 0 0 0 -0 -0 0 0 0
0 0 0 0 0 0 0 0 0 0 0 0 0 0 0 0 0 0 0 0 0 0 0 0 0 0 0 0 0 0 0 0 -0 0 0 0 -0 0 0 -0 -0 -0 -0 -0 -0 -0 0 0 -0 -0 -0 0 0 0
0 0 0 0 0 0 0 0 0 0 0 0 0 0 0 0 0 0 0 0 0 0 0 0 0 0 0 0 0 0 0 0 -0 0 0 0 -0 0 0 -0 -0 -0 -0 -0 -0 -0 -0 0 0 -0 -0 0 0 0
0 0 0 0 0 0 0 -0 0 0 0 0 0 0 0 0 0 0 0 0 0 -0 0 -0 -0 0 0 0 0 0 0 -0 -0 0 0 0 0 0 0 -0 -0 -0 -0 -0 -0 -0 -0 -0 -0 0 0 0 0 -0
0 0 0 0 0 0 0 0 -0 -0 0 0 0 0 0 0 0 -0 0 0 -0 0 -0 0 0 0 0 0 0 -0 -0 -0 0 -0 -0 0 0 0 -0 -0 -0 -0 -0 -0 -0 -0 -0 -0 -0 -0 0 -0 0 -0
0 0 0 0 0 -0 0 0 -0 0 0 0 0 0 0 0 -0 0 -0 -0 0 0 -0 0 0 0 -0 0 -0 0 0 0 0 -0 -0 -0 0 0 -0 -0 -0 -0 -0 -0 -0 -0 -0 -0 0 0 0 0 0 0
0 0 0 0 0 0 0 -0 0 0 0 0 0 0 -0 -0 -0 -0 -0 -0 0 0 0 -0 0 0 0 0 0 0 0 0 0 -0 0 0 0 0 -0 -0 -0 -0 -0 -0 -0 -0 -0 -0 -0 -0 -0 -0 -0 0
-0 0 0 0 0 -0 0 0 0 0 0 0 0 0 0 -0 -0 -0 -0 -0 0 0 0 0 0 0 0 -0 0 0 0 -0 -0 -0 0 0 0 -0 -0 0 0 -0 -0 -0 -0 -0 -0 -0 -0 -0 -0 0 0 0
0 0 -0 -0 0 0 0 0 0 0 -0 0 0 0 -0 0 -0 -0 -0 -0 0 0 0 0 0 0 0 -0 0 -0 -0 -0 -0 0 -0 -0 -0 -0 -0 -0 -0 -0 -0 -0 -0 -0 -0 -0 0 -0 -0 -0 0 0
0 0 0 0 0 0 0 0 0 0 0 0 -0 -0 -0 -0 -0 -0 0 0 0 0 0 0 0 0 0 0 0 -0 -0 0 0 0 0 -0 -0 -0 0 0 -0 -0 -0 -0 -0 -0 0 -0 -0 -0 -0 -0 -0 -0
0 0 0 -0 0 0 0 0 0 0 -0 -0 -0 -0 -0 -0 -0 0 0 0 0 0 0 0 0 0 0 -0 -0 -0 0 0 0 -0 0 -0 -0 -0 0 0 -0 -0 -0 -0 -0 -0 -0 0 -0 -0 -0 -0 -0 -0
0 0 -0 0 0 0 0 0 0 0 -0 -0 -0 -0 0 0 0 0 0 0 0 0 0 0 0 0 -0 -0 -0 0 0 0 0 0 -0 -0 -0 -0 -0 0 -0 -0 -0 -0 -0 -0 -0 -0 -0 0 0 -0 0 -0
0 0 0 0 0 0 0 0 0 -0 -0 -0 0 0 0 0 0 -0 0 0 0 0 0 0 0 0 0 0 0 0 0 0 -0 -0 -0 0 -0 0 0 -0 -0 -0 -0 -0 -0 0 -0 -0 -0 -0 -0 0 0 -0
0 0 0 0 0 0 0 0 -0 0 -0 -0 0 0 0 0 0 0 0 0 0 0 0 0 0 0 0 0 0 0 0 0 0 0 0 0 0 -0 -0 -0 -0 -0 -0 -0 -0 -0 -0 -0 0 0 0 0 0 0
0 0 0 0 0 0 0 0 0 -0 -0 -0 0 -0 0 0 0 0 0 0 0 0 0 0 0 0 0 0 0 0 0 0 0 0 0 0 0 -0 -0 -0 -0 -0 -0 -0 -0 -0 -0 -0 -0 -0 -0 -0 -0 0
0 0 0 0 0 0 0 0 0 0 0 0 -0 0 0 0 0 0 0 0 0 0 0 0 0 0 0 0 0 0 0 0 0 0 0 0 0 0 -0 -0 -0 -0 -0 -0 -0 -0 -0 -0 -0 -0 -0 -0 -0 -0
0 0 0 0 0 0 0 0 0 0 0 0 0 0 0 0 0 0 0 0 0 0 0 0 0 0 0 0 0 0 0 0 0 0 0 0 0 0 0 0 0 0 0 0 0 -0 -0 -0 -0 -0 -0 -0 -0 -0
0 0 -0 -0 0 0 0 0 0 0 0 0 0 0 0 0 0 0 0 0 0 0 0 0 0 0 0 0 0 0 0 0 0 0 0 0 0 0 0 0 0 0 0 0 0 0 0 -0 -0 -0 -0 -0 -0 -0
0 0 0 0 0 0 0 0 0 0 0 0 0 0 0 0 0 0 0 0 0 -0 0 0 0 0 0 0 0 0 0 0 0 0 0 0 0 0 0 0 -0 -0 0 0 0 -0 -0 -0 -0 -0 -0 -0 -0 -0
0 0 -0 0 0 0 0 0 0 0 0 0 0 0 0 0 0 0 0 0 0 0 0 0 0 0 0 0 0 0 0 0 0 0 0 0 0 0 0 0 0 0 0 0 -0 -0 -0 -0 -0 -0 -0 -0 -0 -0
0 0 0 0 0 0 0 0 0 0 0 0 0 0 0 0 0 0 0 0 0 0 0 0 0 0 0 0 0 0 0 0 0 0 0 0 0 0 0 0 0 0 0 0 0 0 0 -0 -0 -0 -0 -0 -0 -0
0 0 0 0 0 0 0 0 0 0 0 0 0 0 0 0 0 0 0 0 0 0 0 0 0 0 0 0 0 0 0 0 0 0 0 0 0 0 0 0 0 0 0 0 0 0 0 0 0 0 0 0 0 0
0 0 0 0 0 0 0 0 0 0 0 0 0 0 0 0 0 0 0 0 0 0 0 0 0 0 0 0 0 0 0 0 0 0 0 0 0 0 0 0 0 0 0 0 0 0 0 0 0 0 0 0 0 0
0 0 0 0 0 0 0 0 0 0 0 0 0 0 0 0 0 0 0 0 0 0 0 0 0 0 0 0 0 0 0 0 0 0 0 0 0 0 0 0 0 0 0 0 0 0 0 0 0 0 0 0 0 0
0 0 0 0 0 0 0 0 0 0 0 0 0 0 0 0 0 0 0 0 0 0 0 0 0 0 0 0 0 0 0 0 0 0 0 0 0 0 0 0 0 0 0 0 0 0 0 0 0 0 0 0 0 0
Wind_Speed_500mb
46 43 39 39 36 33 37 36 33 26 22 20 22 24 25 24 22 20 19 13 24 14 31 34 31 22 21 20 6 9 15 1 5 4 3 3 2 5 6 3 3 8 6 5 3 5 12 2 8 3 9 52 54 41
42 40 39 42 39 36 34 34 24 16 12 17 18 23 26 24 24 21 26 21 20 37 35 56 70 66 61 54 16 6 6 6 9 4 2 3 3 3 1 4 4 3 4 4 11 10 4 9 19 42 38 46 47 59
43 39 35 38 38 36 33 32 28 22 22 18 16 19 23 24 25 25 27 27 25 27 46 26 22 5 8 15 33 15 11 11 1 13 6 3 4 3 3 4 4 0 3 4 7 3 6 45 48 29 55 56 69 74
40 39 38 38 36 36 37 36 36 29 23 21 16 19 20 25 26 26 28 24 24 15 10 15 13 31 41 30 35 30 32 17 17 24 7 3 4 7 4 3 3 5 5 3 10 14 36 10 36 66 75 76 73 74
40 41 40 40 38 34 42 42 34 25 23 24 18 21 19 27 26 26 27 26 23 22 9 28 67 8 13 31 37 30 24 26 20 8 4 5 5 2 1 2 6 3 3 3 6 24 21 51 75 75 71 69 79 88
41 40 38 39 37 36 38 43 46 38 30 26 23 20 22 26 26 15 8 9 20 27 11 8 19 16 9 10 36 41 26 17 10 9 6 8 5 1 1 5 1 8 5 13 12 41 47 63 68 58 71 79 83 94
40 37 34 35 31 31 31 36 34 31 31 19 19 24 24 27 25 16 8 3 10 6 6 10 10 11 12 5 10 30 32 18 13 8 5 5 6 10 4 6 4 6 21 24 29 45 35 43 70 78 73 78 88 93
41 37 32 31 27 25 25 26 30 28 26 22 22 25 26 19 20 27 31 23 18 8 6 5 8 11 6 6 10 17 13 18 14 6 4 4 6 4 4 5 3 16 28 12 41 44 45 59 66 69 73 80 93 92
39 37 31 29 20 20 23 21 23 26 22 22 19 32 25 17 11 18 14 8 16 14 5 7 4 6 13 6 3 7 10 5 7 4 4 4 4 6 6 3 6 16 22 33 46 50 50 55 64 73 77 89 89 93
34 29 25 28 26 24 20 18 18 14 27 18 36 14 8 8 11 10 5 8 12 10 12 8 9 7 4 5 5 5 10 4 5 5 5 4 4 3 6 5 14 25 29 36 40 49 60 67 73 74 77 84 87 93
32 28 27 27 26 25 24 20 15 17 24 42 17 11 9 16 13 6 6 9 8 6 10 12 20 8 8 5 4 9 3 4 2 3 4 4 3 4 4 8 20 29 30 33 39 42 51 57 64 71 77 87 93 102
33 32 32 30 27 28 24 23 29 28 26 22 14 17 16 10 7 5 5 7 8 6 9 8 12 19 9 14 6 7 4 2 6 11 4 3 3 7 8 20 32 29 31 36 40 48 44 53 56 62 69 83 90 96
33 32 33 31 30 28 24 15 19 36 27 19 7 11 9 8 8 9 8 6 6 9 10 9 6 10 11 15 9 2 3 5 10 4 3 2 4 6 17 29 33 30 36 37 38 36 42 49 49 58 69 76 86 98
31 30 32 32 30 28 24 12 47 44 26 10 12 9 8 8 8 8 4 3 6 6 14 24 5 8 8 6 4 3 1 4 5 1 1 2 3 10 19 23 28 34 36 41 49 44 47 46 55 61 68 72 82 92
32 31 33 36 31 26 25 26 42 48 14 8 9 8 12 16 10 7 19 14 18 17 18 13 8 3 3 4 2 3 2 4 1 6 4 5 1 11 14 19 23 30 37 42 46 48 48 48 52 60 65 70 77 87
32 31 36 29 38 32 28 45 57 42 10 8 11 6 9 5 13 19 22 25 26 17 11 8 3 3 3 2 2 5 3 5 6 5 7 7 5 9 11 18 25 31 35 34 39 44 47 47 51 59 65 67 73 84
26 33 25 20 34 36 30 64 34 14 12 8 9 22 18 9 10 10 17 14 6 2 3 6 5 1 2 3 3 5 7 6 9 17 13 17 17 12 14 21 25 29 34 37 38 43 47 44 46 59 71 71 69 79
35 29 22 22 34 34 52 28 18 13 10 13 9 18 26 22 12 12 13 17 5 4 8 3 8 4 3 3 5 6 7 15 17 16 26 20 14 9 13 16 22 26 29 35 38 43 50 49 54 59 64 66 66 80
35 28 21 22 42 40 14 16 12 9 17 8 22 20 14 11 19 21 16 13 8 12 12 6 5 5 6 7 7 17 26 21 25 28 21 13 8 10 10 12 19 24 28 35 40 49 53 48 47 49 58 65 62 72
25 25 20 36 52 11 9 7 15 8 10 12 14 12 15 10 12 16 19 23 6 7 6 6 6 5 4 5 13 26 27 25 35 29 19 10 8 8 10 17 22 24 28 33 39 48 57 60 57 53 54 62 68 67
28 31 54 53 25 8 8 11 11 9 7 10 8 15 7 14 16 17 21 25 9 8 6 9 6 6 16 19 23 28 26 30 23 19 25 22 14 9 14 18 21 25 33 39 43 49 55 58 57 58 60 63 66 68
42 61 39 30 6 6 4 11 5 5 7 7 17 14 7 6 8 13 17 8 10 9 6 10 24 28 24 23 28 31 30 26 26 23 24 20 17 15 17 19 21 26 30 36 38 40 44 49 52 56 59 60 64 68
58 45 13 7 5 5 4 11 8 8 5 6 11 4 4 6 7 27 8 12 7 10 11 23 29 23 20 36 38 27 22 23 26 28 27 19 17 17 18 20 22 25 28 31 32 34 39 43 49 53 57 61 65 68
36 13 7 13 8 7 7 9 8 5 5 4 4 4 5 9 12 7 2 3 6 15 29 37 32 30 36 32 25 18 18 23 29 29 23 18 16 16 15 18 22 27 31 28 28 32 36 42 46 50 54 57 61 63
12 8 9 7 8 9 6 7 6 4 4 5 6 3 4 8 3 1 1 2 19 31 38 35 29 30 41 29 21 26 18 15 20 25 22 11 9 10 10 11 15 20 25 28 35 36 38 41 45 48 50 53 56 57
6 10 13 15 8 6 7 7 9 8 5 5 3 2 1 4 3 1 3 4 25 37 36 36 33 27 31 25 27 28 18 16 16 15 21 10 4 8 7 9 12 17 25 29 31 35 37 39 41 43 46 49 50 52
7 8 11 11 7 6 6 6 9 4 6 5 6 6 3 5 3 3 8 3 20 29 24 25 21 21 36 29 22 19 21 20 14 10 14 10 8 10 12 15 19 22 26 29 33 37 39 40 41 42 44 45 47 49
5 10 8 14 6 4 3 4 6 5 3 10 12 4 4 3 2 7 8 2 20 21 23 22 19 28 26 22 21 30 26 16 10 16 11 9 7 6 10 17 22 25 27 30 33 35 37 39 40 41 41 43 43 45
4 13 13 6 2 4 3 1 4 5 8 7 5 4 6 7 6 5 8 15 21 23 27 25 26 24 27 31 29 21 12 7 4 6 4 1 1 5 11 17 22 25 26 29 32 35 38 39 38 38 37 37 37 37
6 16 6 7 1 3 9 7 9 14 20 21 17 26 27 22 24 17 14 16 20 25 26 28 32 32 30 28 23 6 9 13 8 4 7 7 7 8 14 20 22 24 25 25 28 32 33 34 33 32 32 32 32 33
16 8 7 8 6 11 18 30 29 28 20 22 38 36 22 17 22 28 23 22 25 33 31 35 41 36 17 11 11 11 13 15 13 10 5 3 6 12 18 23 24 22 22 24 28 31 33 33 34 33 33 33 33 35
8 6 9 6 5 9 18 12 13 13 14 17 15 18 17 13 11 12 16 24 22 23 27 28 19 17 19 21 17 12 10 14 9 3 5 11 16 17 18 18 17 17 20 23 26 27 29 30 31 31 31 31 33 34
14 23 20 10 6 6 8 9 9 8 12 9 11 15 13 9 9 5 12 17 21 25 26 25 23 24 21 19 18 17 14 8 5 10 12 14 17 17 16 16 16 17 19 22 24 25 25 25 25 25 26 27 29 30
Wind_Direction_500mb
287 284 279 277 278 280 282 286 295 285 277 281 280 275 273 265 265 258 269 269 241 254 278 267 259 251 276 246 241 335 315 174 279 245 261 281 318 350 322 271 207 191 159 236 259 256 276 31 354 182 275 303 306 292
287 284 281 280 276 273 275 283 281 267 271 295 282 277 270 261 260 249 258 274 275 250 265 282 288 282 268 255 265 229 274 305 265 307 291 272 314 349 146 297 5 234 180 210 190 228 235 321 266 296 317 298 300 300
279 279 282 292 279 264 261 265 270 253 250 270 286 289 263 261 261 255 260 275 282 275 291 287 301 321 262 252 233 235 250 225 159 354 327 309 291 127 311 264 304 304 88 242 340 333 303 312 309 322 320 305 301 299
280 275 282 286 291 262 250 255 273 266 258 261 272 273 262 258 254 246 258 272 278 277 281 287 290 289 294 268 222 234 225 264 309 333 254 281 242 193 237 299 219 239 7 245 251 288 317 302 312 313 309 307 307 308
279 279 284 288 289 280 251 247 259 271 270 257 268 269 267 253 250 248 255 269 275 256 286 294 301 11 328 231 216 227 241 260 270 263 214 243 250 329 253 32 257 166 336 312 284 324 298 301 309 312 309 313 311 309
277 279 286 289 290 285 264 245 249 267 266 243 258 267 250 243 241 244 277 275 245 256 312 298 310 322 5 4 215 221 232 244 225 277 220 247 251 244 336 252 135 113 357 324 275 314 308 305 308 316 316 315 316 310
271 278 284 292 294 295 283 243 245 251 263 250 263 250 248 238 234 224 232 251 192 261 253 290 287 284 331 241 213 224 239 230 230 251 249 274 270 193 237 229 144 338 337 335 341 333 325 326 317 321 321 320 318 312
267 271 278 288 295 291 286 253 240 244 259 251 254 233 216 227 241 246 250 266 248 234 231 272 273 298 336 228 188 181 169 199 214 213 255 256 286 215 261 135 71 346 344 332 335 337 324 319 321 324 326 325 319 316
265 267 271 279 288 280 285 256 243 233 253 236 216 200 203 221 228 253 269 237 231 226 246 233 267 275 333 317 191 160 174 190 198 214 231 165 243 232 248 146 344 344 339 326 327 333 329 325 326 329 331 329 323 324
264 262 267 268 266 265 267 255 235 241 239 238 189 167 197 209 203 162 155 189 212 222 227 246 228 262 307 344 271 219 185 197 199 209 189 210 256 155 113 40 346 345 339 335 339 335 334 331 332 331 331 329 328 330
256 255 265 268 257 255 260 254 246 247 212 182 177 176 181 150 168 201 221 195 198 240 230 240 219 232 260 211 263 221 195 158 247 150 196 223 268 80 73 357 347 342 337 338 336 330 329 329 326 331 336 336 338 344
256 257 259 257 256 250 247 238 235 233 197 188 167 142 144 179 194 240 222 186 204 248 220 222 226 206 235 211 243 228 181 181 244 147 223 246 70 65 5 351 347 345 342 343 340 333 338 342 342 345 345 343 345 349
253 252 251 255 242 239 236 244 232 206 214 178 142 137 156 169 218 213 212 193 222 206 238 221 201 200 204 219 251 250 228 213 140 220 229 47 152 12 353 347 350 1 350 349 355 354 354 350 356 357 355 358 360 357
254 248 247 249 223 225 214 223 211 204 184 175 152 170 206 191 228 206 200 199 229 274 4 316 252 178 202 174 207 109 250 165 220 53 267 244 280 352 349 2 8 13 29 20 14 10 7 3 1 4 6 10 7 359
254 251 247 237 221 218 213 205 215 199 178 168 179 212 213 237 255 258 233 247 254 279 289 309 310 267 256 193 39 97 207 260 206 208 247 132 55 357 20 26 13 7 5 4 11 12 11 8 7 7 9 13 13 8
247 238 245 233 207 210 194 201 189 194 201 214 215 239 217 213 247 230 236 251 270 258 244 225 256 313 285 124 143 225 109 222 246 210 148 120 67 78 43 21 11 2 4 7 9 8 9 11 10 8 14 16 15 14
226 230 238 221 205 200 203 183 179 184 216 212 232 225 228 271 256 243 264 227 200 260 236 190 171 214 29 13 304 176 190 217 170 138 127 115 105 79 41 21 10 11 10 12 11 12 11 14 16 15 16 16 15 17
215 223 203 166 172 193 169 174 181 195 218 216 224 229 216 223 227 250 312 210 184 287 349 310 136 176 222 221 263 219 175 136 130 130 132 120 100 50 9 6 8 11 11 13 18 18 20 22 21 18 17 19 15 18
211 209 200 215 202 158 144 169 184 199 219 227 236 238 223 232 241 257 231 191 249 282 298 267 179 192 223 212 175 163 161 151 143 141 132 117 63 18 28 28 17 20 20 20 23 27 30 30 23 20 18 22 17 16
194 191 219 203 182 129 128 143 173 199 209 223 220 213 206 215 231 225 234 226 284 300 202 230 213 220 213 179 153 156 152 152 146 143 141 126 86 67 61 39 34 30 31 34 33 32 34 36 35 32 31 30 27 22
173 193 178 169 151 121 147 165 176 204 216 227 225 187 202 226 225 216 193 205 216 242 228 222 215 146 131 129 139 149 147 155 165 160 155 139 124 85 57 44 32 34 38 38 36 35 36 36 35 38 39 40 36 32
161 164 150 157 108 136 165 186 179 179 211 277 168 185 204 179 176 186 151 177 231 222 207 183 154 140 134 136 142 139 135 140 143 142 147 137 122 92 64 52 37 40 41 38 34 33 34 36 36 37 37 35 36 34
159 163 116 104 113 165 184 187 191 208 228 180 146 199 183 177 195 152 193 212 219 204 196 162 149 144 144 140 138 133 134 151 148 151 153 144 114 87 70 62 55 50 46 42 33 31 32 31 32 32 31 30 29 29
161 127 144 168 166 185 184 200 203 167 180 183 193 163 171 149 184 206 205 216 192 171 159 158 155 147 147 146 145 140 135 156 159 161 165 153 128 105 76 59 50 47 43 35 31 30 29 28 26 25 25 25 25 25
120 164 156 166 195 194 211 155 174 200 194 173 190 137 136 194 121 117 252 256 171 163 162 162 158 161 157 156 153 149 136 155 169 166 160 160 110 100 93 75 57 47 40 29 29 25 24 21 20 20 20 21 22 22
128 178 183 188 175 208 185 166 190 187 197 154 114 137 347 86 123 98 279 254 183 175 174 172 170 173 172 171 165 164 160 166 167 150 151 144 40 1 35 44 37 34 29 23 16 16 17 16 16 15 16 16 15 16
156 189 197 196 194 188 189 168 139 159 200 136 139 154 172 116 94 5 3 116 181 187 191 183 179 183 166 163 172 183 173 159 159 162 154 134 94 72 51 41 35 28 18 9 7 10 12 12 11 12 12 11 12 12
188 178 171 176 190 167 145 157 158 196 142 145 131 94 94 63 89 341 353 110 169 173 162 163 165 172 179 178 176 169 166 171 173 155 131 108 93 60 33 22 16 9 358 356 359 1 4 6 6 6 5 5 6 6
228 164 138 118 26 141 259 172 171 124 130 108 100 108 99 76 32 90 100 132 153 172 171 168 170 180 175 164 158 154 147 144 165 177 208 169 198 347 352 356 351 348 347 346 347 351 356 359 360 359 359 360 360 358
155 148 113 116 93 79 20 22 93 107 119 121 110 117 102 89 76 100 122 139 153 170 179 177 168 168 153 150 135 148 206 188 191 256 276 271 286 313 331 335 337 337 337 338 340 342 343 344 346 347 350 351 352 354
142 127 91 76 79 66 81 113 124 119 108 104 137 122 117 106 88 85 105 124 133 130 132 145 147 136 137 167 184 191 193 203 226 242 261 275 302 316 320 321 323 327 330 331 334 337 341 344 347 349 350 351 353 353
125 131 121 105 95 101 104 61 61 68 61 73 63 101 96 87 68 58 93 129 140 160 157 145 144 161 165 156 153 153 146 137 129 90 1 338 333 334 338 343 343 336 330 332 336 341 346 349 352 355 357 358 358 356
92 96 96 95 99 92 65 90 68 73 55 58 55 70 70 75 85 76 101 137 166 175 173 176 172 162 155 148 138 129 118 100 19 347 349 345 343 351 358 358 354 349 345 342 342 346 353 359 2 4 4 3 2 1
Wind_Speed_850mb
46 43 39 39 36 33 37 36 33 26 22 20 22 24 25 24 22 20 19 13 24 14 31 34 31 22 21 20 6 9 15 1 5 4 3 3 2 5 6 3 3 8 6 5 3 5 12 2 8 3 9 52 54 41
42 40 39 42 39 36 34 34 24 16 12 17 18 23 26 24 24 21 26 21 20 37 35 56 70 66 61 54 16 6 6 6 9 4 2 3 3 3 1 4 4 3 4 4 11 10 4 9 19 42 38 46 47 59
43 39 35 38 38 36 33 32 28 22 22 18 16 19 23 24 25 25 27 27 25 27 46 26 22 5 8 15 33 15 11 11 1 13 6 3 4 3 3 4 4 0 3 4 7 3 6 45 48 29 55 56 69 74
40 39 38 38 36 36 37 36 36 29 23 21 16 19 20 25 26 26 28 24 24 15 10 15 13 31 41 30 35 30 32 17 17 24 7 3 4 7 4 3 3 5 5 3 10 14 36 10 36 66 75 76 73 74
40 41 40 40 38 34 42 42 34 25 23 24 18 21 19 27 26 26 27 26 23 22 9 28 67 8 13 31 37 30 24 26 20 8 4 5 5 2 1 2 6 3 3 3 6 24 21 51 75 75 71 69 79 88
41 40 38 39 37 36 38 43 46 38 30 26 23 20 22 26 26 15 8 9 20 27 11 8 19 16 9 10 36 41 26 17 10 9 6 8 5 1 1 5 1 8 5 13 12 41 47 63 68 58 71 79 83 94
40 37 34 35 31 31 31 36 34 31 31 19 19 24 24 27 25 16 8 3 10 6 6 10 10 11 12 5 10 30 32 18 13 8 5 5 6 10 4 6 4 6 21 24 29 45 35 43 70 78 73 78 88 93
41 37 32 31 27 25 25 26 30 28 26 22 22 25 26 19 20 27 31 23 18 8 6 5 8 11 6 6 10 17 13 18 14 6 4 4 6 4 4 5 3 16 28 12 41 44 45 59 66 69 73 80 93 92
39 37 31 29 20 20 23 21 23 26 22 22 19 32 25 17 11 18 14 8 16 14 5 7 4 6 13 6 3 7 10 5 7 4 4 4 4 6 6 3 6 16 22 33 46 50 50 55 64 73 77 89 89 93
34 29 25 28 26 24 20 18 18 14 27 18 36 14 8 8 11 10 5 8 12 10 12 8 9 7 4 5 5 5 10 4 5 5 5 4 4 3 6 5 14 25 29 36 40 49 60 67 73 74 77 84 87 93
32 28 27 27 26 25 24 20 15 17 24 42 17 11 9 16 13 6 6 9 8 6 10 12 20 8 8 5 4 9 3 4 2 3 4 4 3 4 4 8 20 29 30 33 39 42 51 57 64 71 77 87 93 102
33 32 32 30 27 28 24 23 29 28 26 22 14 17 16 10 7 5 5 7 8 6 9 8 12 19 9 14 6 7 4 2 6 11 4 3 3 7 8 20 32 29 31 36 40 48 44 53 56 62 69 83 90 96
33 32 33 31 30 28 24 15 19 36 27 19 7 11 9 8 8 9 8 6 6 9 10 9 6 10 11 15 9 2 3 5 10 4 3 2 4 6 17 29 33 30 36 37 38 36 42 49 49 58 69 76 86 98
31 30 32 32 30 28 24 12 47 44 26 10 12 9 8 8 8 8 4 3 6 6 14 24 5 8 8 6 4 3 1 4 5 1 1 2 3 10 19 23 28 34 36 41 49 44 47 46 55 61 68 72 82 92
32 31 33 36 31 26 25 26 42 48 14 8 9 8 12 16 10 7 19 14 18 17 18 13 8 3 3 4 2 3 2 4 1 6 4 5 1 11 14 19 23 30 37 42 46 48 48 48 52 60 65 70 77 87
32 31 36 29 38 32 28 45 57 42 10 8 11 6 9 5 13 19 22 25 26 17 11 8 3 3 3 2 2 5 3 5 6 5 7 7 5 9 11 18 25 31 35 34 39 44 47 47 51 59 65 67 73 84
26 33 25 20 34 36 30 64 34 14 12 8 9 22 18 9 10 10 17 14 6 2 3 6 5 1 2 3 3 5 7 6 9 17 13 17 17 12 14 21 25 29 34 37 38 43 47 44 46 59 71 71 69 79
35 29 22 22 34 34 52 28 18 13 10 13 9 18 26 22 12 12 13 17 5 4 8 3 8 4 3 3 5 6 7 15 17 16 26 20 14 9 13 16 22 26 29 35 38 43 50 49 54 59 64 66 66 80
35 28 21 22 42 40 14 16 12 9 17 8 22 20 14 11 19 21 16 13 8 12 12 6 5 5 6 7 7 17 26 21 25 28 21 13 8 10 10 12 19 24 28 35 40 49 53 48 47 49 58 65 62 72
25 25 20 36 52 11 9 7 15 8 10 12 14 12 15 10 12 16 19 23 6 7 6 6 6 5 4 5 13 26 27 25 35 29 19 10 8 8 10 17 22 24 28 33 39 48 57 60 57 53 54 62 68 67
28 31 54 53 25 8 8 11 11 9 7 10 8 15 7 14 16 17 21 25 9 8 6 9 6 6 16 19 23 28 26 30 23 19 25 22 14 9 14 18 21 25 33 39 43 49 55 58 57 58 60 63 66 68
42 61 39 30 6 6 4 11 5 5 7 7 17 14 7 6 8 13 17 8 10 9 6 10 24 28 24 23 28 31 30 26 26 23 24 20 17 15 17 19 21 26 30 36 38 40 44 49 52 56 59 60 64 68
58 45 13 7 5 5 4 11 8 8 5 6 11 4 4 6 7 27 8 12 7 10 11 23 29 23 20 36 38 27 22 23 26 28 27 19 17 17 18 20 22 25 28 31 32 34 39 43 49 53 57 61 65 68
36 13 7 13 8 7 7 9 8 5 5 4 4 4 5 9 12 7 2 3 6 15 29 37 32 30 36 32 25 18 18 23 29 29 23 18 16 16 15 18 22 27 31 28 28 32 36 42 46 50 54 57 61 63
12 8 9 7 8 9 6 7 6 4 4 5 6 3 4 8 3 1 1 2 19 31 38 35 29 30 41 29 21 26 18 15 20 25 22 11 9 10 10 11 15 20 25 28 35 36 38 41 45 48 50 53 56 57
6 10 13 15 8 6 7 7 9 8 5 5 3 2 1 4 3 1 3 4 25 37 36 36 33 27 31 25 27 28 18 16 16 15 21 10 4 8 7 9 12 17 25 29 31 35 37 39 41 43 46 49 50 52
7 8 11 11 7 6 6 6 9 4 6 5 6 6 3 5 3 3 8 3 20 29 24 25 21 21 36 29 22 19 21 20 14 10 14 10 8 10 12 15 19 22 26 29 33 37 39 40 41 42 44 45 47 49
5 10 8 14 6 4 3 4 6 5 3 10 12 4 4 3 2 7 8 2 20 21 23 22 19 28 26 22 21 30 26 16 10 16 11 9 7 6 10 17 22 25 27 30 33 35 37 39 40 41 41 43 43 45
4 13 13 6 2 4 3 1 4 5 8 7 5 4 6 7 6 5 8 15 21 23 27 25 26 24 27 31 29 21 12 7 4 6 4 1 1 5 11 17 22 25 26 29 32 35 38 39 38 38 37 37 37 37
6 16 6 7 1 3 9 7 9 14 20 21 17 26 27 22 24 17 14 16 20 25 26 28 32 32 30 28 23 6 9 13 8 4 7 7 7 8 14 20 22 24 25 25 28 32 33 34 33 32 32 32 32 33
16 8 7 8 6 11 18 30 29 28 20 22 38 36 22 17 22 28 23 22 25 33 31 35 41 36 17 11 11 11 13 15 13 10 5 3 6 12 18 23 24 22 22 24 28 31 33 33 34 33 33 33 33 35
8 6 9 6 5 9 18 12 13 13 14 17 15 18 17 13 11 12 16 24 22 23 27 28 19 17 19 21 17 12 10 14 9 3 5 11 16 17 18 18 17 17 20 23 26 27 29 30 31 31 31 31 33 34
14 23 20 10 6 6 8 9 9 8 12 9 11 15 13 9 9 5 12 17 21 25 26 25 23 24 21 19 18 17 14 8 5 10 12 14 17 17 16 16 16 17 19 22 24 25 25 25 25 25 26 27 29 30
Wind_Direction_850mb
287 284 279 277 278 280 282 286 295 285 277 281 280 275 273 265 265 258 269 269 241 254 278 267 259 251 276 246 241 335 315 174 279 245 261 281 318 350 322 271 207 191 159 236 259 256 276 31 354 182 275 303 306 292
287 284 281 280 276 273 275 283 281 267 271 295 282 277 270 261 260 249 258 274 275 250 265 282 288 282 268 255 265 229 274 305 265 307 291 272 314 349 146 297 5 234 180 210 190 228 235 321 266 296 317 298 300 300
279 279 282 292 279 264 261 265 270 253 250 270 286 289 263 261 261 255 260 275 282 275 291 287 301 321 262 252 233 235 250 225 159 354 327 309 291 127 311 264 304 304 88 242 340 333 303 312 309 322 320 305 301 299
280 275 282 286 291 262 250 255 273 266 258 261 272 273 262 258 254 246 258 272 278 277 281 287 290 289 294 268 222 234 225 264 309 333 254 281 242 193 237 299 219 239 7 245 251 288 317 302 312 313 309 307 307 308
279 279 284 288 289 280 251 247 259 271 270 257 268 269 267 253 250 248 255 269 275 256 286 294 301 11 328 231 216 227 241 260 270 263 214 243 250 329 253 32 257 166 336 312 284 324 298 301 309 312 309 313 311 309
277 279 286 289 290 285 264 245 249 267 266 243 258 267 250 243 241 244 277 275 245 256 312 298 310 322 5 4 215 221 232 244 225 277 220 247 251 244 336 252 135 113 357 324 275 314 308 305 308 316 316 315 316 310
271 278 284 292 294 295 283 243 245 251 263 250 263 250 248 238 234 224 232 251 192 261 253 290 287 284 331 241 213 224 239 230 230 251 249 274 270 193 237 229 144 338 337 335 341 333 325 326 317 321 321 320 318 312
267 271 278 288 295 291 286 253 240 244 259 251 254 233 216 227 241 246 250 266 248 234 231 272 273 298 336 228 188 181 169 199 214 213 255 256 286 215 261 135 71 346 344 332 335 337 324 319 321 324 326 325 319 316
265 267 271 279 288 280 285 256 243 233 253 236 216 200 203 221 228 253 269 237 231 226 246 233 267 275 333 317 191 160 174 190 198 214 231 165 243 232 248 146 344 344 339 326 327 333 329 325 326 329 331 329 323 324
264 262 267 268 266 265 267 255 235 241 239 238 189 167 197 209 203 162 155 189 212 222 227 246 228 262 307 344 271 219 185 197 199 209 189 210 256 155 113 40 346 345 339 335 339 335 334 331 332 331 331 329 328 330
256 255 265 268 257 255 260 254 246 247 212 182 177 176 181 150 168 201 221 195 198 240 230 240 219 232 260 211 263 221 195 158 247 150 196 223 268 80 73 357 347 342 337 338 336 330 329 329 326 331 336 336 338 344
256 257 259 257 256 250 247 238 235 233 197 188 167 142 144 179 194 240 222 186 204 248 220 222 226 206 235 211 243 228 181 181 244 147 223 246 70 65 5 351 347 345 342 343 340 333 338 342 342 345 345 343 345 349
253 252 251 255 242 239 236 244 232 206 214 178 142 137 156 169 218 213 212 193 222 206 238 221 201 200 204 219 251 250 228 213 140 220 229 47 152 12 353 347 350 1 350 349 355 354 354 350 356 357 355 358 360 357
254 248 247 249 223 225 214 223 211 204 184 175 152 170 206 191 228 206 200 199 229 274 4 316 252 178 202 174 207 109 250 165 220 53 267 244 280 352 349 2 8 13 29 20 14 10 7 3 1 4 6 10 7 359
254 251 247 237 221 218 213 205 215 199 178 168 179 212 213 237 255 258 233 247 254 279 289 309 310 267 256 193 39 97 207 260 206 208 247 132 55 357 20 26 13 7 5 4 11 12 11 8 7 7 9 13 13 8
247 238 245 233 207 210 194 201 189 194 201 214 215 239 217 213 247 230 236 251 270 258 244 225 256 313 285 124 143 225 109 222 246 210 148 120 67 78 43 21 11 2 4 7 9 8 9 11 10 8 14 16 15 14
226 230 238 221 205 200 203 183 179 184 216 212 232 225 228 271 256 243 264 227 200 260 236 190 171 214 29 13 304 176 190 217 170 138 127 115 105 79 41 21 10 11 10 12 11 12 11 14 16 15 16 16 15 17
215 223 203 166 172 193 169 174 181 195 218 216 224 229 216 223 227 250 312 210 184 287 349 310 136 176 222 221 263 219 175 136 130 130 132 120 100 50 9 6 8 11 11 13 18 18 20 22 21 18 17 19 15 18
211 209 200 215 202 158 144 169 184 199 219 227 236 238 223 232 241 257 231 191 249 282 298 267 179 192 223 212 175 163 161 151 143 141 132 117 63 18 28 28 17 20 20 20 23 27 30 30 23 20 18 22 17 16
194 191 219 203 182 129 128 143 173 199 209 223 220 213 206 215 231 225 234 226 284 300 202 230 213 220 213 179 153 156 152 152 146 143 141 126 86 67 61 39 34 30 31 34 33 32 34 36 35 32 31 30 27 22
173 193 178 169 151 121 147 165 176 204 216 227 225 187 202 226 225 216 193 205 216 242 228 222 215 146 131 129 139 149 147 155 165 160 155 139 124 85 57 44 32 34 38 38 36 35 36 36 35 38 39 40 36 32
161 164 150 157 108 136 165 186 179 179 211 277 168 185 204 179 176 186 151 177 231 222 207 183 154 140 134 136 142 139 135 140 143 142 147 137 122 92 64 52 37 40 41 38 34 33 34 36 36 37 37 35 36 34
159 163 116 104 113 165 184 187 191 208 228 180 146 199 183 177 195 152 193 212 219 204 196 162 149 144 144 140 138 133 134 151 148 151 153 144 114 87 70 62 55 50 46 42 33 31 32 31 32 32 31 30 29 29
161 127 144 168 166 185 184 200 203 167 180 183 193 163 171 149 184 206 205 216 192 171 159 158 155 147 147 146 145 140 135 156 159 161 165 153 128 105 76 59 50 47 43 35 31 30 29 28 26 25 25 25 25 25
120 164 156 166 195 194 211 155 174 200 194 173 190 137 136 194 121 117 252 256 171 163 162 162 158 161 157 156 153 149 136 155 169 166 160 160 110 100 93 75 57 47 40 29 29 25 24 21 20 20 20 21 22 22
128 178 183 188 175 208 185 166 190 187 197 154 114 137 347 86 123 98 279 254 183 175 174 172 170 173 172 171 165 164 160 166 167 150 151 144 40 1 35 44 37 34 29 23 16 16 17 16 16 15 16 16 15 16
156 189 197 196 194 188 189 168 139 159 200 136 139 154 172 116 94 5 3 116 181 187 191 183 179 183 166 163 172 183 173 159 159 162 154 134 94 72 51 41 35 28 18 9 7 10 12 12 11 12 12 11 12 12
188 178 171 176 190 167 145 157 158 196 142 145 131 94 94 63 89 341 353 110 169 173 162 163 165 172 179 178 176 169 166 171 173 155 131 108 93 60 33 22 16 9 358 356 359 1 4 6 6 6 5 5 6 6
228 164 138 118 26 141 259 172 171 124 130 108 100 108 99 76 32 90 100 132 153 172 171 168 170 180 175 164 158 154 147 144 165 177 208 169 198 347 352 356 351 348 347 346 347 351 356 359 360 359 359 360 360 358
155 148 113 116 93 79 20 22 93 107 119 121 110 117 102 89 76 100 122 139 153 170 179 177 168 168 153 150 135 148 206 188 191 256 276 271 286 313 331 335 337 337 337 338 340 342 343 344 346 347 350 351 352 354
142 127 91 76 79 66 81 113 124 119 108 104 137 122 117 106 88 85 105 124 133 130 132 145 147 136 137 167 184 191 193 203 226 242 261 275 302 316 320 321 323 327 330 331 334 337 341 344 347 349 350 351 353 353
125 131 121 105 95 101 104 61 61 68 61 73 63 101 96 87 68 58 93 129 140 160 157 145 144 161 165 156 153 153 146 137 129 90 1 338 333 334 338 343 343 336 330 332 336 341 346 349 352 355 357 358 358 356
92 96 96 95 99 92 65 90 68 73 55 58 55 70 70 75 85 76 101 137 166 175 173 176 172 162 155 148 138 129 118 100 19 347 349 345 343 351 358 358 354 349 345 342 342 346 353 359 2 4 4 3 2 1